User: anonymous   Login
Location: Ladysmith
(45.4630°N, 91.1040°W)
Time: 05:42:12
(UTC-05:00)
Language:

SO-67 - Orbit

View from above orbital plane
View from above orbital plane
View from above satellite
View from above satellite

Ground track
Ground track

The orbit data is extracted from the following two-line orbital elements,

1 35870U 09049F   14304.13005654  .00016333  00000-0  47643-3 0  6508
2 35870 097.1542 321.2353 0001862 045.9466 355.4936 15.35419147284899
Epoch (UTC): 31 October 2014 03:07:16
Eccentricity: 0.0001862
inclination: 97.1542°
perigee height: 458 km
apogee height: 461 km
right ascension of ascending node: 321.2353°
argument of perigee: 45.9466°
revolutions per day: 15.35419147
mean anomaly at epoch: 355.4936°
orbit number at epoch: 28489

The dashed part of the orbit path shows where the satellite is in the earth's shadow,  

DLR